Regional Weather Roundup
Issued by NWS

Home | Current Version | Previous Version | Text Only | Print | Product List | Glossary Off
Versions: 1 2 3 4 5 6 7 8 9 10 11 12 13 14 15 16 17 18 19 20 21 22 23 24 25 26 27 28 29 30 31 32 33 34 35 36 37 38 39 40 41 42 43 44 45 46 47 48 49 50

000
ASUS43 KLSX 250207
RWRMO

WEATHER SUMMARY FOR MISSOURI
NATIONAL WEATHER SERVICE SPRINGFIELD MO
900 PM CDT THU MAY 24 2018

NOTE: "FAIR" INDICATES FEW OR NO CLOUDS BELOW 12,000 FEET WITH NO
       SIGNIFICANT WEATHER AND/OR OBSTRUCTIONS TO VISIBILITY.
       CURRENT SKY AND/OR WEATHER CONDITIONS ARE NOT AVAILABLE FOR
       CHILLICOTHE AND FARMINGTON.

MOZ001>031-035>038-043-044-053-054-250300-
...NORTHERN AND WESTERN MISSOURI...

CITY           SKY/WX    TMP DP  RH WIND       PRES   REMARKS
KANSAS CTY INT LGT RAIN  68  66  93 S9        29.99S
KANSAS C DTWN  LGT RAIN  72  64  76 S7        29.99R
LEE`S SUMMIT   LGT RAIN  69  65  86 SW10      30.02R
ST JOSEPH      CLOUDY    73  66  78 S9        29.98S
CHILLICOTHE      N/A     78  65  63 S5        29.99S
KIRKSVILLE     PTCLDY    76  67  73 S6        30.02R

$$
MOZ066>068-077>081-088>096-101>105-250300-
...SOUTHWEST MISSOURI...

CITY           SKY/WX    TMP DP  RH WIND       PRES   REMARKS
SPRINGFIELD    CLOUDY    74  66  76 S5        30.05R
JOPLIN         CLOUDY    74  68  81 SE6       30.03R
BRANSON        CLOUDY    70  64  83 SE5       30.07R

$$
MOZ032>034-039>042-045>050-055>058-069>072-250300-
...CENTRAL MISSOURI...

CITY           SKY/WX    TMP DP  RH WIND       PRES   REMARKS
COLUMBIA       PTCLDY    76  68  76 S5        30.01F
JEFFERSON CITY MOCLDY    77  69  76 E6        30.00F
ROLLA          PTCLDY    76  64  66 S3        30.05S
SEDALIA        CLOUDY    76  72  87 S6        30.02S
WHITEMAN AFB   MOCLDY    76  65  68 W9        29.99R
WARRENSBURG    CLOUDY    70  61  73 S7        30.02R
OSAGE BEACH    CLOUDY    74  70  87 CALM      30.03F

$$
MOZ051-052-059>065-250300-
...EAST CENTRAL MISSOURI...

CITY           SKY/WX    TMP DP  RH WIND       PRES   REMARKS
ST LOUIS INTL  PTCLDY    82  60  47 S8        30.03R
SPIRIT OF STL  CLEAR     75  65  70 S3        30.01R
ST CHARLES     CLEAR     78  64  61 SE6       30.01R

$$
MOZ072>076-082>087-097>100-106>115-250300-
...SOUTH CENTRAL AND SOUTHEAST MISSOURI...

CITY           SKY/WX    TMP DP  RH WIND       PRES   REMARKS
CAPE GIRARDEAU FAIR      74  67  78 CALM      30.02S
FARMINGTON     PTCLDY    74  64  71 CALM      30.05S
POPLAR BLUFF   CLOUDY    78  71  79 SW5       30.02R
WEST PLAINS    MOCLDY    73  68  84 SE3       30.07S

$$




USA.gov is the U.S. government's official web portal to all federal, state and local government web resources and services.